Regional Weather Roundup
Issued by NWS

Home | Current Version | Previous Version | Graphics & Text | Print | Product List | Glossary On
Versions: 1 2 3 4 5 6 7 8 9 10 11 12 13 14 15 16 17 18 19 20 21 22 23 24 25 26 27 28 29 30 31 32 33 34 35 36 37 38 39 40 41 42 43 44 45 46 47 48 49 50
000
ASUS43 KMPX 270910
RWRMN
WEATHER ROUNDUP FOR MINNESOTA
NATIONAL WEATHER SERVICE TWIN CITIES/CHANHASSEN MN
400 AM CDT THU APR 27 2017


NOTE: "FAIR" INDICATES FEW OR NO CLOUDS BELOW 12,000 FEET WITH NO
SIGNIFICANT WEATHER AND/OR OBSTRUCTIONS TO VISIBILITY. N/A MEANS
CURRENT SKY AND/OR WEATHER CONDITIONS ARE NOT AVAILABLE.

MNZ060>063-068>070-271000-
   Twin Cities Metro

CITY           SKY/WX    TMP DP  RH WIND       PRES   REMARKS
TWIN CITIES    CLOUDY    35  30  82 NW10      29.53F WCI  27
ST PAUL        CLOUDY    35  32  88 NW12      29.54F WCI  27
CRYSTAL        CLOUDY    33  30  88 NW8       29.53F FOG     WCI  26
LAKEVILLE      CLOUDY    34  34 100 NW9       29.53R WCI  26
EDEN PRAIRIE   CLOUDY    34  31  88 NW9       29.53S FOG     WCI  27
SOUTH ST PAUL  CLOUDY    36  31  85 N7        29.53S
LAKE ELMO      CLOUDY    34  32  93 N6        29.53S WCI  29
$$
MNZ001>005-007-008-013>017-022>024-027-028-271000-
   Northwest Minnesota

CITY           SKY/WX    TMP DP  RH WIND       PRES   REMARKS
BEMIDJI        LGT SNOW  22  19  87 N7        29.63S WCI  13
HALLOCK        CLOUDY    28  25  86 NE8       29.75S WCI  20
ROSEAU         LGT SNOW  27  21  80 NE12      29.72S WCI  16
WARROAD        LGT SNOW  25  21  86 NE17      29.72S WCI  11
THIEF RVR FALL FLURRIES  23  20  88 NE9       29.71S WCI  13
CROOKSTON      LGT SNOW  27  25  93 NE9       29.73R WCI  17
FOSSTON        FLURRIES  21  19  93 N13       29.66S WCI   9
DETROIT LAKES  CLOUDY    27  23  86 CALM      29.63S
MOORHEAD       CLOUDY    27  23  86 N6        29.69R WCI  20
PARK RAPIDS    CLOUDY    25  17  72 N15       29.59F WCI  13
MAHNOMEN       FLURRIES  24  22  89 N5        29.65S WCI  18
$$
MNZ006-009>011-018-025>026-271000-
   North Central Minnesota

CITY           SKY/WX    TMP DP  RH WIND       PRES   REMARKS
BAUDETTE       LGT SNOW  23  17  78 NE15G21   29.68S WCI  10
FLAG ISLAND    LGT SNOW  25  19  80 NE13G21   29.71F WCI  13
INTL FALLS     CLOUDY    21  13  71 NE13      29.65F WCI   9
WASKISH        CLOUDY    21  18  86 N8        29.66S WCI  12
BIG FORK       FLURRIES  21  18  86 N6        29.61F WCI  14
LONGVILLE      CLOUDY    25  21  86 N7        29.59S WCI  17
CRANE LAKE     CLOUDY    19  16  86 N7        29.64S WCI  10
ORR            LGT SNOW  19  16  86 N5        29.58F WCI  13
COOK           CLOUDY    21  18  86 N3        29.60S
WALKER         CLOUDY    22  19  87 N8        29.61S WCI  13
$$
MNZ012-019>021-037-271000-
   Northeast Minnesota

CITY           SKY/WX    TMP DP  RH WIND       PRES   REMARKS
DULUTH         FRZ DRZL  24  21  88 N8        29.54S WCI  15
ELY            CLOUDY    19  16  86 N5        29.57S WCI  13
HIBBING        CLOUDY    21  17  84 N9        29.57S WCI  11
EVELETH        CLOUDY    22  18  83 N7        29.57F WCI  14
DULUTH HARBOR  CLOUDY    28  25  86 N9        29.58F WCI  20
TWO HARBORS    CLOUDY    27  21  80 N6        29.53F WCI  20
SILVER BAY     CLOUDY    23  19  86 N8        29.53F WCI  14
G MARAIS ARPRT CLOUDY    16  12  86 CALM      29.48F
$$
MNZ029>031-032-039>041-046>048-054>057-064-271000-
   West Central Minnesota

CITY           SKY/WX    TMP DP  RH WIND       PRES   REMARKS
FERGUS FALLS   CLOUDY    28  25  86 N9G18     29.64S WCI  20
WHEATON        CLOUDY    28  25  86 NW14      29.67S WCI  17
MORRIS         CLOUDY    28  28 100 NW16      29.60F FOG     WCI  17
ALEXANDRIA     CLOUDY    29  25  85 N13       29.59F WCI  19
ELBOW LAKE     CLOUDY    29  25  83 N8        29.62S WCI  21
WADENA         MIX PCPN  25  23  93 N6        29.60S WCI  18
GLENWOOD       CLOUDY    28  25  86 N9        29.58F WCI  20
APPLETON       CLOUDY    30  27  86 NW13G20   29.62F WCI  20
BENSON         LGT SNOW  32  28  86 N10       29.61F WCI  24
ORTONVILLE     CLOUDY    28  25  86 N15       29.64F WCI  17
MADISON        CLOUDY    32  30  93 NW12      29.63F WCI  23
WILLMAR        CLOUDY    32  30  93 NW13      29.59S WCI  22
$$
MNZ033>034-036-042>043-049>051-058-059-271000-
   Central Minnesota

CITY           SKY/WX    TMP DP  RH WIND       PRES   REMARKS
ST CLOUD       CLOUDY    31  29  92 NW8       29.56F WCI  23
SAUK CENTRE    CLOUDY    28  25  88 N8        29.58S WCI  20
PAYNESVILLE    CLOUDY    30  31 100 N9        29.58S WCI  22
AITKIN         CLOUDY    27  21  80 N6        29.56F WCI  20
PINE RIVER     CLOUDY    25  21  86 N8        29.62F WCI  16
BRAINERD       CLOUDY    26  23  88 N9        29.58S WCI  17
STAPLES        CLOUDY    25  25 100 N9        29.59S WCI  15
LONG PRAIRIE   CLOUDY    28  27  93 CALM      29.58S
LITTLE FALLS   CLOUDY    30  27  86 NW5       29.58S WCI  25
LITCHFIELD     CLOUDY    32  30  93 N10       29.57F WCI  24
BUFFALO        CLOUDY    32  30  93 NW8       29.56F FOG     WCI  25
MAPLE LAKE     CLOUDY    32  32  99 NW7       29.56F FOG     WCI  26
HUTCHINSON     CLOUDY    32  30  92 NW13      29.57F WCI  23
$$
MNZ037-044-045-052-053-271000-
   East Central Minnesota

CITY           SKY/WX    TMP DP  RH WIND       PRES   REMARKS
PRINCETON      CLOUDY    34  30  86 NW6       29.55F FOG     WCI  29
MORA           CLOUDY    30  27  86 N5        29.57S WCI  25
CAMBRIDGE      LGT SNOW  34  30  86 N6        29.53F WCI  29
RUSH CITY      CLOUDY    31  28  88 N9        29.55S WCI  23
MOOSE LAKE     CLOUDY    27  25  93 N8        29.55S WCI  18
HINCKLEY       CLOUDY    30  28  93 N9        29.56S WCI  22
CLOQUET        CLOUDY    25  21  86 N10       29.55F WCI  15
MCGREGOR       CLOUDY    27  25  93 NE3       29.57F
$$
MNZ071>073-080-081-089-090-097-098-271000-
   Southwest Minnesota

CITY           SKY/WX    TMP DP  RH WIND       PRES   REMARKS
MONTEVIDEO     CLOUDY    30  30 100 N14       29.61S WCI  20
GRANITE FALLS  CLOUDY    32  30  92 NW13G18   29.62S WCI  22
CANBY          CLOUDY    31  27  86 W13G20    29.64F WCI  21
MARSHALL       CLOUDY    29  27  92 NW16      29.61F WCI  17
REDWOOD FALLS  CLOUDY    31  28  89 NW8G20    29.59S WCI  23
OLIVIA         CLOUDY    32  32 100 NW13G20   29.58S FOG     WCI  22
PIPESTONE      CLOUDY    28  21  74 N14G24    29.60F WCI  17
WINDOM         PTCLDY    30  28  93 NW15      29.58S FOG     WCI  19
WORTHINGTON    CLOUDY    28  26  92 NW20      29.60S WCI  15
JACKSON        CLOUDY    30  28  93 NW15G21   29.59R WCI  19
TRACY          CLOUDY    30  29  97 NW17G23   29.60F FOG     WCI  18
SLAYTON        CLOUDY    28  26  91 NW18      29.60S WCI  15
$$
MNZ065>067-074>077-082>085-091>093-271000-
   South Central Minnesota

CITY           SKY/WX    TMP DP  RH WIND       PRES   REMARKS
MANKATO        LGT SNOW  32  30  93 NW10      29.56S FOG     WCI  24
NEW ULM        CLOUDY    32  30  93 NW14      29.57S FOG     WCI  22
ST JAMES       CLOUDY    30  30 100 W15       29.59R FOG     WCI  19
FAIRMONT       CLOUDY    31  29  92 NW17      29.58S FOG     WCI  19
GLENCOE        LGT SNOW  33  32  99 NW9       29.56S WCI  25
FARIBAULT      CLOUDY    34  32  93 NW7       29.54R WCI  28
OWATONNA       CLOUDY    34  32  93 NW15      29.53R WCI  24
WASECA         CLOUDY    32  32 100 NW9       29.56R FOG     WCI  24
ALBERT LEA     CLOUDY    32  30  93 NW9       29.53S WCI  24
$$
MNZ078>079-086>088-094>096-271000-
   Southeast Minnesota

CITY           SKY/WX    TMP DP  RH WIND       PRES   REMARKS
ROCHESTER      CLOUDY    34  33  96 NW15      29.49R WCI  24
RED WING       CLOUDY    36  28  75 N6        29.51R
STANTON        CLOUDY    36  32  87 NW6       29.52R
DODGE CENTER   MIX PCPN  34  34 100 NW9       29.50S WCI  26
WINONA         CLOUDY    36  34  93 N9G17     29.49S
AUSTIN         CLOUDY    34  32  93 NW12      29.50F FOG     WCI  25
PRESTON        CLOUDY    34  31  89 N9        29.49R WCI  27
$$
ABBREVIATIONS USED IN REMARKS
   TC - TEMPERATURES IN CELSIUS
  WCI - WIND CHILL INDEX
   HX - HEAT INDEX
  VSB - VISIBILITY
$$



USA.gov is the U.S. government's official web portal to all federal, state and local government web resources and services.